Flag for Kosovo Weather past 2 weeks in Uroševac, Kosovo

Now
64 °F

Clear.


Feels Like: 64 °F
Forecast: 54 / 91 °F
Wind: No wind

Location: Skopje-Petrovec

Current Time: Aug 28, 2015 at 3:08:00 AM

Latest Report: Aug 28, 2015 at 2:30 AM


Visibility: 10 mi

Pressure: 30.12 "Hg (28.13 "Hg at 582m altitude)

Humidity: 64%

Dew point: 52 °F

Location of UroševacLocation

Historic Weather in Uroševac — Graph

°F

Uroševac temperature yesterday

Maximum temperature yesterday: 93 °F (at 4:30 PM)
Minimum temperature yesterday: 63 °F (at 4:00 AM)
Average temperature yesterday: 78 °F

Past Weeks' High & Low Weather Summary

 TemperatureHumidityPressure
High97 °F (Aug 13, 2:00 PM)94% (Aug 17, 3:00 AM)30.12 "Hg (Aug 17, 3:00 AM)
Low55 °F (Aug 18, 5:30 AM)18% (Aug 13, 2:30 PM)29.71 "Hg (Aug 16, 3:30 PM)
Average75 °F55%29.96 "Hg
* Reported Aug 13 2:30 AM — Aug 28 2:00 AM, Uroševac, Weather by CustomWeather, © 2015

Note: Actual official high and low records may vary slightly from our data, if they occured in-between our weather recording intervals... More about our weather records

Advertising

Uroševac weather history for previous 24 hours

 ConditionsComfort  
Time TempWeatherWind HumidityBarometerVisibility
2:00 AM
Fri, Aug 28
64 °FClear.No wind64%30.12 "Hg10 mi
1:30 AM66 °FClear.2 mph60%30.12 "Hg10 mi
1:00 AM66 °FClear.3 mph60%30.12 "Hg10 mi
12:30 AM70 °FClear.2 mph53%30.12 "Hg10 mi
12:00 AM73 °FClear.3 mph44%30.12 "Hg10 mi
11:30 PM
Thu, Aug 27
75 °FClear.5 mph41%30.09 "Hg10 mi
11:00 PM75 °FClear.9 mph41%30.09 "Hg10 mi
10:30 PM75 °FClear.7 mph41%30.09 "Hg10 mi
10:00 PM73 °FClear.No wind44%30.09 "Hg10 mi
9:30 PM77 °FClear.No wind39%30.07 "Hg10 mi
9:00 PM77 °FClear.2 mph39%30.07 "Hg10 mi
8:30 PM77 °FClear.2 mph39%30.07 "Hg10 mi
8:00 PM79 °FSunny.2 mph37%30.07 "Hg10 mi
7:30 PM82 °FSunny.2 mph32%30.04 "Hg10 mi
7:00 PM86 °FSunny.5 mph29%30.04 "Hg10 mi
6:30 PM88 °FSunny.7 mph25%30.04 "Hg10 mi
6:00 PM90 °FSunny.8 mph24%30.04 "Hg10 mi
5:30 PM91 °FSunny.3 mph23%30.04 "Hg10 mi
5:00 PM93 °FSunny.2 mph21%30.04 "Hg10 mi
4:30 PM93 °FSunny.2 mph21%30.04 "Hg10 mi
4:00 PM91 °FPassing clouds.6 mph26%30.04 "HgN/A
3:30 PM91 °FPassing clouds.6 mph26%30.04 "HgN/A
3:00 PM91 °FPassing clouds.3 mph26%30.04 "HgN/A
2:30 PM91 °FPassing clouds.7 mph28%30.07 "HgN/A
2:00 PM90 °FPassing clouds.6 mph29%30.07 "HgN/A
1:00 PM88 °FSunny.No wind31%30.09 "Hg10 mi
12:30 PM86 °FSunny.3 mph33%30.09 "Hg10 mi
12:00 PM86 °FSunny.3 mph33%30.09 "Hg10 mi
11:30 AM84 °FSunny.No wind35%30.12 "Hg10 mi
11:00 AM82 °FSunny.3 mph40%30.12 "Hg10 mi
10:30 AM81 °FSunny.5 mph42%30.12 "Hg10 mi
10:00 AM79 °FSunny.2 mph45%30.12 "Hg10 mi
9:30 AM77 °FSunny.No wind51%30.12 "Hg10 mi
9:00 AM73 °FSunny.1 mph57%30.12 "Hg10 mi
8:30 AM72 °FSunny.No wind61%30.12 "Hg10 mi
8:00 AM68 °FSunny.No wind69%30.12 "Hg10 mi
7:30 AM66 °FSunny.No wind73%30.12 "Hg10 mi
7:00 AM63 °FSunny.2 mph77%30.12 "Hg10 mi
5:00 AM64 °FClear.2 mph73%30.09 "Hg10 mi
4:00 AM63 °FClear.2 mph83%30.09 "Hg10 mi
3:30 AM64 °FClear.2 mph78%30.09 "Hg10 mi
3:00 AM66 °FClear.3 mph73%30.09 "Hg10 mi
Weather by CustomWeather, © 2015

See weather overviewHow to use our weather pages